View from above orbital plane
|
View from above satellite
|
Ground track
|
The orbit data is extracted from the following two-line orbital elements,
1 33499U 09002H 21023.56580691 .00000117 00000-0 25094-4 0 9990
2 33499 98.2888 250.1180 0009868 137.4525 222.7449 14.75609341645047
Epoch (UTC): | 23 January 2021 13:34:45 |
Eccentricity: | 0.0009868 |
inclination: | 98.2888° |
perigee height: | 636 km |
apogee height: | 650 km |
right ascension of ascending node: | 250.1180° |
argument of perigee: | 137.4525° |
revolutions per day: | 14.75609341 |
mean anomaly at epoch: | 222.7449° |
orbit number at epoch: | 64504 |
The dashed part of the orbit path shows where the satellite is in the earth's shadow,
|
|